Tracking 19192 objects as of 19-Jun-2018
HD Live streaming from Space Station
objects crossing your sky now

FENGYUN 1C DEB

Track FENGYUN 1C DEB now!
10-day predictions


NORAD ID: 30593
Int'l Code: 1999-025ALY
Perigee: 772.3 km
Apogee: 791.5 km
Inclination: 102.4 °
Period: 100.3 minutes
Semi major axis: 7152 km
RCS: 0.0129 m2 (small)
Launch date: May 10, 1999
Source: People's Republic of China (PRC)
Launch site: Taiyaun Space Center, China (TSC)

Note: This is SATELLITE DEBRIS
aabbcc
Your satellite tracking list
Your tracking list is empty




NASA's NSSDC Master Catalog

Two Line Element Set (TLE):
1 30593U 99025ALY 18169.33744220 +.00001302 +00000-0 +48346-3 0  9999
2 30593 102.3999 091.0781 0013442 278.7806 206.2028 14.35098717591148
Source of the keplerian elements: AFSPC